This is the latest recevied weather packets stored in our database for station/object KF0TNT. If no packets are shown the sender has not sent any weather packets the latest 10 day(s).
| Time | Temp. | Humidity | Pressure | Rain* | Wind** | Luminosity | Snow |
|---|---|---|---|---|---|---|---|
| 1777983890 | 4.44° C | 89% | 1013.8 hPa | 0 mm | - | 2 W/m² | - |
| 1777983587 | 5° C | 88% | 1013.5 hPa | 0 mm | - | 2 W/m² | - |
| 1777983283 | 5° C | 87% | 1013.5 hPa | 0 mm | - | 3 W/m² | - |
| 1777982979 | 5° C | 85% | 1013.6 hPa | 0 mm | - | 2 W/m² | - |
| 1777982676 | 5° C | 84% | 1013.6 hPa | 0 mm | - | 1 W/m² | - |
| 1777982375 | 5° C | 82% | 1013.6 hPa | 0 mm | - | 1 W/m² | - |
| 1777982072 | 5° C | 81% | 1013.6 hPa | 0 mm | - | 0 W/m² | - |
| 1777981769 | 5° C | 80% | 1013.5 hPa | 0 mm | - | 0 W/m² | - |
| 1777981465 | 5° C | 80% | 1013.8 hPa | 0 mm | - | 0 W/m² | - |
| 1777981161 | 5° C | 80% | 1013.5 hPa | 0 mm | - | 0 W/m² | - |
| 1777980859 | 5° C | 81% | 1013.9 hPa | 0 mm | - | 0 W/m² | - |
| 1777980554 | 5° C | 82% | 1013.4 hPa | 0 mm | - | 0 W/m² | - |
| 1777980252 | 5° C | 84% | 1013 hPa | 0 mm | - | 0 W/m² | - |
| 1777979948 | 5° C | 87% | 1013.5 hPa | 0 mm | - | 0 W/m² | - |
| 1777979643 | 5° C | 89% | 1013.3 hPa | 0 mm | - | 0 W/m² | - |
| 1777979339 | 5° C | 91% | 1013.3 hPa | 0 mm | - | 0 W/m² | - |
| 1777979037 | 5° C | 92% | 1013.5 hPa | 0 mm | - | 0 W/m² | - |
| 1777978733 | 5° C | 93% | 1013.4 hPa | 0 mm | - | 0 W/m² | - |
| 1777978429 | 5° C | 93% | 1013.5 hPa | 0 mm | - | 0 W/m² | - |
| 1777978126 | 5° C | 93% | 1013.5 hPa | 0 mm | - | 0 W/m² | - |
| 1777977823 | 5° C | 94% | 1013.2 hPa | 0 mm | - | 0 W/m² | - |
| 1777977519 | 5° C | 94% | 1013.3 hPa | 0 mm | - | 0 W/m² | - |
| 1777977217 | 5° C | 95% | 1013.3 hPa | 0 mm | - | 0 W/m² | - |
| 1777976914 | 5° C | 95% | 1013 hPa | 0 mm | - | 0 W/m² | - |
| 1777976611 | 5° C | 95% | 1013.2 hPa | 0 mm | - | 0 W/m² | - |
* Rain latest hour (hover to see other rain measurements)
** Current wind speed in m/s (hover to see current wind gust speed)